#datint,netname,site,siteID,timestamp,IntT,BattV,AirT2,AirT,AirT_Avg,AirT_Max,AirT_Min,RH_Avg,RH_Max,RH_Min,EA_Avg,Td_Avg,Td_Max,Td_Min,WindS_Smp,WindS_Avg,WindD_Avg,WindD_SD,WindS_Max,ETo,ETr,SoilT4,SoilT8,SoilVWC8,SolarW_Avg,wetstate_Avg,wetT_Avg,Precip_accum,Precip_WPG,Precip_TB
15min,AgWx,beryljct,423,08JUN2018:01:00:00,56.7,13.03,57.8,57.6,58.1,62.0,51.3,29,49,21,0.426,25.3,33.5,21.0,3.442,4.1,122,82,6.3,0.00027,0.00042,70.5,71.3,13,0,0,56.0,13.87,0.00,0.00
15min,AgWx,beryljct,423,08JUN2018:01:15:00,55.9,13.02,54.6,54.7,54.7,57.7,52.8,33,41,27,0.453,26.0,30.0,22.4,1.688,2.4,52,9.4,5.0,0.00003,0.00009,70.2,71.3,13,0,0,52.0,13.88,0.00,0.00
15min,AgWx,beryljct,423,08JUN2018:01:30:00,54.7,13.02,52.1,53.6,52.1,55.2,49.2,42,54,30,0.503,29.6,33.5,24.3,3.749,1.0,355,24,3.7,-0.00019,-0.00026,69.9,71.2,13,0,0,48.7,13.88,0.00,0.00
15min,AgWx,beryljct,423,08JUN2018:01:45:00,53.9,13.01,54.6,54.0,54.3,56.5,52.2,33,41,25,0.492,25.6,29.8,21.0,5.13,4.6,321,19,6.9,0.00027,0.00039,69.6,71.1,13,0,0,51.1,13.88,0.00,0.00
15min,AgWx,beryljct,423,08JUN2018:02:00:00,53.2,13,51.6,52.4,51.6,53.9,49.9,39,46,31,0.450,27.4,30.2,23.6,3.99,2.4,2.9,39,5.0,0.00000,0.00005,69.4,71.0,13,0,0,49.4,13.88,0.00,0.00
15min,AgWx,beryljct,423,08JUN2018:02:15:00,52.6,12.99,53.0,51.1,52.8,55.5,49.9,34,45,26,0.451,25.2,29.8,21.2,1.447,1.5,29,0.7,4.2,-0.00010,-0.00010,69.1,70.9,13,0,0,49.7,13.88,0.00,0.00
15min,AgWx,beryljct,423,08JUN2018:02:30:00,51.7,12.98,51.2,48.8,51.2,53.6,48.0,39,53,28,0.522,27.0,32.3,21.3,1.03,0.5,27,35,3.5,-0.00028,-0.00040,68.8,70.7,13,0,0,47.3,13.88,0.00,0.00
15min,AgWx,beryljct,423,08JUN2018:02:45:00,50.8,12.96,51.1,50.5,50.7,52.8,48.1,39,54,30,0.489,26.2,32.6,22.1,4.187,1.4,197,20,5.0,-0.00013,-0.00016,68.5,70.6,13,0,0,46.8,13.88,0.00,0.00
15min,AgWx,beryljct,423,08JUN2018:03:00:00,49.9,12.96,48.4,47.7,48.5,50.8,46.1,46,56,36,0.536,28.5,31.3,24.8,0.088,1.7,159,11,4.3,-0.00009,-0.00010,68.2,70.5,13,0,0,45.8,13.89,0.00,0.00
15min,AgWx,beryljct,423,08JUN2018:03:15:00,48.9,12.95,46.6,47.1,46.4,50.5,43.5,53,66,38,0.469,29.9,33.2,25.5,0.723,0.9,220,44,3.5,-0.00021,-0.00029,67.9,70.4,13,0,0,44.2,13.89,0.00,0.00
15min,AgWx,beryljct,423,08JUN2018:03:30:00,48.0,12.94,47.5,51.7,46.8,51.8,43.0,48,66,32,0.428,27.8,32.4,22.2,1.6,2.9,206,20,4.7,0.00002,0.00006,67.7,70.3,13,0,0,44.7,13.89,0.00,0.00
15min,AgWx,beryljct,423,08JUN2018:03:45:00,47.3,12.93,46.3,45.9,46.6,52.1,45.3,54,58,33,0.563,30.5,31.7,23.7,1.381,2.1,233,1.9,3.9,-0.00007,-0.00007,67.4,70.2,13,0,0,45.0,13.89,0.00,0.00
15min,AgWx,beryljct,423,08JUN2018:04:00:00,46.8,12.93,47.1,46.7,46.7,47.7,45.4,51,56,48,0.518,29.4,30.8,28.0,0.899,1.5,228,6.7,3.6,-0.00013,-0.00016,67.1,70.0,13,0,0,43.6,13.89,0.00,0.00
15min,AgWx,beryljct,423,08JUN2018:04:15:00,46.6,12.92,48.0,47.1,47.5,50.8,44.8,46,55,36,0.516,27.8,30.6,23.9,1.841,1.4,218,24,4.6,-0.00013,-0.00016,66.9,69.9,13,0,0,44.3,13.89,0.00,0.00
15min,AgWx,beryljct,423,08JUN2018:04:30:00,46.4,12.92,47.3,47.1,47.1,50.5,44.3,46,57,32,0.515,27.0,30.5,21.2,1.622,2.5,184,78,5.2,-0.00001,0.00002,66.6,69.8,13,0,0,45.1,13.89,0.00,0.00
15min,AgWx,beryljct,423,08JUN2018:04:45:00,46.1,12.91,46.8,46.1,46.6,48.4,44.4,46,59,32,0.474,26.6,31.2,19.7,0.504,1.1,290,18,3.3,-0.00018,-0.00023,66.3,69.7,13,0,0,43.5,13.89,0.00,0.00
15min,AgWx,beryljct,423,08JUN2018:05:00:00,45.7,12.9,44.7,44.0,44.6,46.2,43.3,44,48,39,0.379,23.8,26.7,20.5,3.398,2.3,336,33,4.1,-0.00002,0.00000,66.1,69.5,13,0,0,42.9,13.89,0.00,0.00
15min,AgWx,beryljct,423,08JUN2018:05:15:00,44.9,12.9,41.9,43.2,41.7,44.2,40.3,52,64,39,0.410,25.0,29.3,19.5,0.11,0.9,310,59,3.4,-0.00018,-0.00024,65.8,69.4,13,0,0,40.0,13.90,0.00,0.00
15min,AgWx,beryljct,423,08JUN2018:05:30:00,44.2,12.89,44.3,44.0,43.8,44.9,41.7,41,58,35,0.444,21.5,28.2,18.6,0.658,0.8,300,41,2.4,0.00011,0.00019,65.6,69.3,13,0,0,40.4,13.90,0.00,0.00
15min,AgWx,beryljct,423,08JUN2018:05:45:00,43.5,12.88,41.6,43.4,41.4,43.8,39.6,56,68,41,0.391,26.7,30.1,21.2,0,0.3,0.8,0.2,1.3,0.00004,0.00006,65.3,69.1,13,0,0,39.2,13.90,0.00,0.00
15min,AgWx,beryljct,423,08JUN2018:06:00:00,43.0,12.88,43.2,40.7,43.1,45.5,39.9,49,65,32,0.506,24.2,29.7,17.1,1.863,0.4,0.8,0.2,1.9,0.00006,0.00009,65.1,69.0,13,0,0,39.1,13.89,0.00,0.00
15min,AgWx,beryljct,423,08JUN2018:06:15:00,42.6,12.88,41.5,38.1,41.5,44.7,38.1,55,69,39,0.537,26.0,28.8,21.5,3.508,2.8,64,80,6.5,0.00028,0.00048,64.8,68.9,13,4,0,39.5,13.90,0.00,0.00
15min,AgWx,beryljct,423,08JUN2018:06:30:00,42.0,12.89,38.3,37.3,38.1,38.7,37.3,67,72,64,0.537,28.2,29.0,27.3,4.626,3.0,150,2.9,4.6,0.00027,0.00042,64.6,68.7,13,20,0,39.4,13.90,0.00,0.00
15min,AgWx,beryljct,423,08JUN2018:06:45:00,41.7,12.89,39.6,40.2,38.9,40.3,37.4,65,72,61,0.538,28.3,30.0,27.4,2.455,3.1,139,44,7.1,0.00041,0.00058,64.3,68.6,13,48,0,43.4,13.90,0.00,0.00
15min,AgWx,beryljct,423,08JUN2018:07:00:00,42.0,12.89,40.1,41.1,39.7,41.1,38.7,67,76,54,0.476,29.5,31.7,25.8,0.592,1.3,91,52,3.2,0.00045,0.00054,64.1,68.4,13,85,0,48.9,13.90,0.00,0.00
15min,AgWx,beryljct,423,08JUN2018:07:15:00,43.0,12.9,42.0,43.2,41.5,43.2,40.6,66,76,54,0.619,30.8,33.6,26.0,1.271,1.0,50,0.7,2.3,0.00060,0.00069,63.8,68.3,13,125,0,57.1,13.89,0.00,0.00
15min,AgWx,beryljct,423,08JUN2018:07:30:00,44.9,12.91,45.9,47.9,45.2,47.9,43.3,62,68,51,0.573,32.9,34.9,30.4,0.044,1.3,52,1.4,2.1,0.00085,0.00099,63.7,68.2,13,169,0,63.5,13.89,0.00,0.00
15min,AgWx,beryljct,423,08JUN2018:07:45:00,47.7,12.94,49.1,49.9,48.7,49.9,48.0,55,62,43,0.622,32.9,36.3,26.8,2.346,1.1,93,30,3.0,0.00112,0.00128,63.4,68.0,13,216,0,71.0,13.89,0.00,0.00
15min,AgWx,beryljct,423,08JUN2018:08:00:00,50.7,12.93,52.7,53.5,52.2,53.5,50.0,47,55,37,0.627,32.3,35.0,27.4,4.604,2.5,155,5.3,4.6,0.00156,0.00189,63.2,67.9,13,267,0,75.5,13.89,0.00,0.00
15min,AgWx,beryljct,423,08JUN2018:08:15:00,53.7,12.96,54.6,55.2,54.3,55.2,53.6,47,58,40,0.667,34.6,39.6,30.2,4.187,3.5,155,4.2,4.8,0.00193,0.00237,63.1,67.8,13,318,0,77.2,13.89,0.00,0.00
15min,AgWx,beryljct,423,08JUN2018:08:30:00,56.5,13.01,56.7,57.8,56.4,57.8,55.2,44,50,39,0.807,34.5,39.0,32.3,3.025,3.2,156,4.8,4.3,0.00227,0.00275,63.0,67.6,13,369,0,81.0,13.88,0.00,0.00
15min,AgWx,beryljct,423,08JUN2018:08:45:00,59.2,13.07,59.0,59.5,58.7,59.5,57.7,48,55,41,0.715,38.8,42.3,35.4,3.727,2.8,134,11,3.9,0.00257,0.00301,62.9,67.5,13,422,0,87.7,13.88,0.00,0.00
15min,AgWx,beryljct,423,08JUN2018:09:00:00,61.8,13.18,61.2,62.0,60.9,62.0,59.6,42,49,35,0.814,37.8,41.8,33.3,1.644,2.1,126,4.5,3.7,0.00290,0.00333,62.9,67.3,13,472,0,93.6,13.88,0.00,0.00
15min,AgWx,beryljct,423,08JUN2018:09:15:00,64.5,13.37,63.4,64.5,63.2,64.5,62.0,40,51,24,0.564,38.2,44.6,27.0,1.271,1.5,118,0.4,2.1,0.00324,0.00364,63.0,67.2,13,523,0,99.4,13.88,0.00,0.00
15min,AgWx,beryljct,423,08JUN2018:09:30:00,67.3,13.61,65.7,67.1,65.5,67.1,64.5,33,45,23,0.831,35.5,44.1,25.5,0,0.4,118,0.0,1.3,0.00351,0.00380,63.0,67.1,13,572,0,107.1,13.87,0.00,0.00
15min,AgWx,beryljct,423,08JUN2018:09:45:00,70.3,13.93,67.6,68.0,67.6,68.3,66.7,32,38,25,0.578,36.4,41.0,30.6,0.044,0.2,118,0.0,0.9,0.00388,0.00417,63.2,67.0,13,620,0,114.5,13.87,0.00,0.00
15min,AgWx,beryljct,423,08JUN2018:10:00:00,73.0,14.1,69.3,69.5,69.3,70.3,68.2,33,41,24,0.804,38.6,44.7,30.5,1.513,0.6,120,1.8,1.9,0.00429,0.00467,63.3,66.9,13,667,0,117.0,13.86,0.00,0.00
15min,AgWx,beryljct,423,08JUN2018:10:15:00,75.1,14.05,70.9,72.1,70.8,72.1,69.5,31,41,19,0.691,38.6,45.3,27.4,0.965,1.3,118,0.8,2.4,0.00473,0.00525,63.5,66.8,13,712,0,115.0,13.86,0.00,0.00
15min,AgWx,beryljct,423,08JUN2018:10:30:00,77.1,14,72.8,73.6,72.8,73.9,72.0,29,41,19,1.056,38.6,47.7,28.0,2.762,1.4,115,6.6,4.6,0.00511,0.00568,63.7,66.7,13,755,0,115.0,13.86,0.00,0.00
15min,AgWx,beryljct,423,08JUN2018:10:45:00,78.3,13.95,73.8,74.6,73.9,74.6,73.4,31,41,24,0.955,41.4,48.8,34.3,5.393,3.7,86,19,5.6,0.00567,0.00660,64.0,66.6,13,796,0,109.9,13.85,0.00,0.00
15min,AgWx,beryljct,423,08JUN2018:11:00:00,79.0,14.04,75.0,75.3,75.2,76.0,74.6,30,42,13,0.956,41.5,50.3,21.8,4.341,4.2,106,22,8.2,0.00603,0.00708,64.3,66.5,13,832,0,107.6,13.85,0.00,0.00
15min,AgWx,beryljct,423,08JUN2018:11:15:00,79.5,13.95,75.6,76.9,75.7,77.1,74.9,26,37,14,0.489,37.4,46.9,23.6,4.582,5.6,131,27,9.3,0.00646,0.00779,64.7,66.5,13,866,0,104.6,13.85,0.00,0.00
15min,AgWx,beryljct,423,08JUN2018:11:30:00,80.1,13.93,77.2,78.6,77.2,78.6,75.7,23,39,10,0.479,34.9,49.9,17.0,3.573,5.2,165,38,8.8,0.00675,0.00810,65.1,66.4,13,897,0,108.1,13.85,0.00,0.00
15min,AgWx,beryljct,423,08JUN2018:11:45:00,80.4,13.94,75.9,76.0,76.4,78.8,75.0,26,37,16,0.898,38.3,47.3,28.2,5.152,7.5,142,22,13.3,0.00709,0.00873,65.6,66.4,13,928,0,101.0,13.85,0.00,0.00
15min,AgWx,beryljct,423,08JUN2018:12:00:00,80.3,13.91,77.0,78.6,77.0,78.6,76.0,23,32,15,0.722,35.9,44.6,25.8,6.796,8.3,155,21,16.8,0.00740,0.00922,66.1,66.4,13,954,0,100.0,13.85,0.00,0.00
15min,AgWx,beryljct,423,08JUN2018:12:15:00,80.8,13.51,78.6,76.9,78.9,80.4,76.9,20,34,12,0.940,34.0,46.8,22.0,8.35,7.1,178,25,11.9,0.00761,0.00936,66.6,66.5,13,977,0,103.5,13.85,0.00,0.00
15min,AgWx,beryljct,423,08JUN2018:12:30:00,81.0,13.51,77.6,77.9,77.7,79.6,76.8,23,33,13,0.688,36.2,46.1,25.3,12.21,8.5,158,18,13.9,0.00773,0.00962,67.2,66.5,13,997,0,99.5,13.85,0.00,0.00
15min,AgWx,beryljct,423,08JUN2018:12:45:00,81.3,13.48,78.7,80.0,78.7,80.8,77.5,19,27,12,0.572,32.1,41.4,20.8,14.45,5.8,152,25,14.6,0.00763,0.00918,67.7,66.6,13,1008,0,106.2,13.85,0.00,0.00
15min,AgWx,beryljct,423,08JUN2018:13:00:00,82.0,13.47,79.7,79.6,79.9,81.3,79.0,18,25,13,0.864,32.8,40.9,25.6,7.936,7.2,210,29,14.1,0.00799,0.00983,68.3,66.7,13,1022,0,105.0,13.84,0.00,0.00
15min,AgWx,beryljct,423,08JUN2018:13:15:00,82.4,13.48,78.3,78.1,78.6,80.7,77.6,24,36,13,0.718,37.9,48.8,24.9,7.585,8.2,154,17,13.9,0.00796,0.00982,68.9,66.7,13,1030,0,100.5,13.84,0.00,0.00
15min,AgWx,beryljct,423,08JUN2018:13:30:00,82.5,13.48,79.5,81.9,79.4,82.0,77.6,21,31,14,0.691,35.7,45.0,25.3,11.73,7.8,162,39,13.3,0.00803,0.00989,69.5,66.9,13,1034,0,102.5,13.85,0.00,0.00
15min,AgWx,beryljct,423,08JUN2018:13:45:00,83.3,13.48,80.5,82.1,80.8,82.5,78.9,19,32,10,0.390,33.3,46.9,21.1,7.3,8.7,176,31,15.8,0.00830,0.01039,70.2,67.0,13,1035,0,103.6,13.85,0.00,0.00
15min,AgWx,beryljct,423,08JUN2018:14:00:00,83.9,13.49,80.7,79.8,81.1,82.6,78.7,17,24,10,0.502,31.3,39.0,19.6,3.047,9.1,185,27,17.9,0.00840,0.01061,70.8,67.1,13,1032,0,101.7,13.85,0.00,0.00
15min,AgWx,beryljct,423,08JUN2018:14:15:00,84.2,13.45,82.1,83.3,82.0,83.3,79.5,15,26,9.4,0.475,28.5,41.7,18.6,11.79,9.6,193,27,15.5,0.00848,0.01080,71.5,67.3,13,1024,0,102.2,13.85,0.00,0.00
15min,AgWx,beryljct,423,08JUN2018:14:30:00,84.7,13.45,81.0,80.7,81.4,83.6,78.5,18,32,10,0.707,32.7,46.1,21.0,12.5,10.3,173,23,19.4,0.00841,0.01076,72.1,67.5,13,1013,0,99.3,13.85,0.00,0.00
15min,AgWx,beryljct,423,08JUN2018:14:45:00,84.5,13.51,81.7,83.7,81.6,84.0,79.2,16,26,9.3,0.544,30.9,42.6,19.4,6.686,9.9,181,27,18.0,0.00830,0.01063,72.7,67.7,13,997,0,96.8,13.85,0.00,0.00
15min,AgWx,beryljct,423,08JUN2018:15:00:00,85.0,13.42,81.9,80.6,82.3,84.1,80.6,15,23,9.5,0.773,29.5,39.1,19.1,5.919,10.0,175,23,18.0,0.00828,0.01067,73.3,67.8,13,979,0,98.9,13.84,0.00,0.00
15min,AgWx,beryljct,423,08JUN2018:15:15:00,84.8,13.4,80.5,82.9,80.5,83.0,79.5,21,32,10,0.605,36.8,46.9,20.9,12.01,8.7,157,22,14.8,0.00770,0.00968,73.8,68.1,13,956,0,95.7,13.85,0.00,0.00
15min,AgWx,beryljct,423,08JUN2018:15:30:00,85.6,13.35,84.9,85.1,84.9,85.9,82.9,11,16,8.6,0.420,24.4,32.2,18.5,11.77,9.1,215,21,18.9,0.00808,0.01045,74.3,68.3,13,933,0,98.0,13.85,0.00,0.00
15min,AgWx,beryljct,423,08JUN2018:15:45:00,86.5,13.35,84.6,84.8,84.9,85.5,84.1,11,13,8.5,0.441,23.3,28.8,18.1,14.93,12.1,216,17,18.0,0.00837,0.01125,74.7,68.5,13,904,0,98.2,13.85,0.00,0.00
15min,AgWx,beryljct,423,08JUN2018:16:00:00,87.1,13.31,84.8,85.7,85.0,86.1,84.5,11,13,8.2,0.524,23.8,30.3,17.7,7.848,9.7,218,15,17.1,0.00779,0.01027,75.0,68.7,13,872,0,97.3,13.85,0.00,0.00
15min,AgWx,beryljct,423,08JUN2018:16:15:00,87.8,13.34,85.3,85.4,85.5,85.9,84.9,11,13,8.8,0.496,24.7,29.8,20.0,10.43,9.4,229,17,17.2,0.00753,0.00992,75.3,68.9,13,838,0,96.2,13.85,0.00,0.00
15min,AgWx,beryljct,423,08JUN2018:16:30:00,88.3,13.34,85.0,85.9,85.2,86.0,84.1,11,18,8.7,0.422,24.1,35.9,19.2,12.25,9.0,208,23,15.8,0.00696,0.00925,75.5,69.1,13,767,0,95.8,13.85,0.00,0.00
15min,AgWx,beryljct,423,08JUN2018:16:45:00,88.5,13.31,84.8,84.9,85.1,85.8,84.7,11,13,9.3,0.379,23.7,29.2,20.5,11.66,12.1,217,14,20.5,0.00743,0.01027,75.8,69.3,13,759,0,94.4,13.85,0.00,0.00
15min,AgWx,beryljct,423,08JUN2018:17:00:00,88.7,13.34,84.9,85.2,85.0,86.0,84.4,10,12,8.9,0.458,23.2,27.3,19.2,11.11,10.2,221,21,15.8,0.00685,0.00934,76.1,69.6,13,722,0,92.0,13.85,0.00,0.00
15min,AgWx,beryljct,423,08JUN2018:17:15:00,88.5,13.31,84.8,84.4,85.0,85.9,84.2,10,13,9.2,0.390,23.3,29.2,20.2,18,13.5,213,15,19.0,0.00711,0.01013,76.3,69.8,13,673,0,91.8,13.85,0.00,0.00
15min,AgWx,beryljct,423,08JUN2018:17:30:00,88.3,13.36,84.6,84.2,84.9,85.9,84.2,10,13,9.1,0.499,22.4,28.5,19.9,7.081,10.9,204,14,20.0,0.00623,0.00883,76.6,70.0,13,608,0,92.0,13.84,0.00,0.00
15min,AgWx,beryljct,423,08JUN2018:17:45:00,88.1,13.31,84.3,84.4,84.4,85.1,83.4,10,16,8.9,0.408,23.0,32.3,19.0,12.78,11.0,220,20,17.5,0.00605,0.00859,76.9,70.1,13,589,0,90.2,13.85,0.00,0.00
15min,AgWx,beryljct,423,08JUN2018:18:00:00,87.8,13.33,83.9,84.0,84.2,85.3,82.7,11,17,9.0,0.504,22.9,34.2,19.4,10.57,10.7,193,13,16.8,0.00568,0.00816,77.1,70.3,13,542,0,88.4,13.85,0.00,0.00
15min,AgWx,beryljct,423,08JUN2018:18:15:00,87.3,13.33,83.7,83.9,83.8,84.5,81.5,11,16,9.0,0.397,23.1,31.5,19.0,8.15,10.5,205,16,17.7,0.00529,0.00770,77.3,70.5,13,493,0,88.0,13.85,0.00,0.00
15min,AgWx,beryljct,423,08JUN2018:18:30:00,86.8,13.36,83.5,83.4,83.7,84.2,83.3,10,11,8.9,0.385,21.8,24.8,18.6,16.62,12.1,219,17,20.0,0.00528,0.00794,77.5,70.7,13,445,0,86.7,13.85,0.00,0.00
15min,AgWx,beryljct,423,08JUN2018:18:45:00,86.3,13.39,82.9,83.0,83.0,83.4,82.8,10,11,9.0,0.380,20.8,23.4,18.6,11.14,13.0,225,12,17.7,0.00512,0.00792,77.7,70.9,13,395,0,84.9,13.85,0.00,0.00
15min,AgWx,beryljct,423,08JUN2018:19:00:00,85.6,13.31,82.5,82.6,82.7,83.0,82.2,10,12,9.0,0.411,21.2,24.6,18.1,8.35,10.9,222,12,16.5,0.00435,0.00676,77.8,71.1,13,345,0,84.1,13.85,0.00,0.00
15min,AgWx,beryljct,423,08JUN2018:19:15:00,85.0,13.27,82.1,82.1,82.3,82.7,81.9,10,12,9.0,0.374,20.5,23.9,17.8,7.848,11.8,211,12,19.1,0.00417,0.00669,77.9,71.3,13,294,0,82.9,13.85,0.00,0.00
15min,AgWx,beryljct,423,08JUN2018:19:30:00,84.3,13.22,81.4,80.9,81.6,82.4,80.8,11,12,9.4,0.372,21.1,23.8,18.5,11.86,10.4,212,13,16.8,0.00350,0.00572,77.9,71.4,13,244,0,81.7,13.85,0.00,0.00
15min,AgWx,beryljct,423,08JUN2018:19:45:00,83.5,13.23,80.6,80.4,80.8,81.2,80.3,10,11,9.1,0.357,19.2,22.3,17.1,11.55,11.5,215,11,16.0,0.00343,0.00583,77.9,71.6,13,196,0,80.3,13.85,0.00,0.00
15min,AgWx,beryljct,423,08JUN2018:20:00:00,82.5,13.19,79.4,79.2,79.6,80.5,78.8,11,13,9.5,0.377,20.5,23.5,17.6,6.204,8.4,221,7.7,12.5,0.00163,0.00219,77.9,71.8,13,149,0,78.5,13.85,0.00,0.00
15min,AgWx,beryljct,423,08JUN2018:20:15:00,81.2,13.21,78.1,78.2,78.3,79.2,77.8,12,13,11,0.357,20.9,23.3,18.1,8.15,7.8,217,8.5,10.5,0.00139,0.00190,77.8,71.9,13,108,0,76.2,13.85,0.00,0.00
15min,AgWx,beryljct,423,08JUN2018:20:30:00,79.9,13.2,77.2,76.6,77.5,78.3,76.6,11,12,10,0.374,19.7,21.3,16.9,7.037,8.4,221,6.6,11.2,0.00136,0.00184,77.7,72.0,13,70,0,75.1,13.85,0.00,0.00
15min,AgWx,beryljct,423,08JUN2018:20:45:00,78.1,13.17,74.5,73.5,74.9,76.6,73.5,13,15,12,0.410,21.3,23.0,20.0,5.831,6.4,223,4.4,7.9,0.00096,0.00135,77.5,72.1,13,35,0,72.3,13.86,0.00,0.00
15min,AgWx,beryljct,423,08JUN2018:21:00:00,76.1,13.15,73.9,73.8,73.8,74.5,73.3,13,15,12,0.369,20.7,22.6,18.8,7.3,7.5,226,6.0,9.5,0.00100,0.00138,77.3,72.2,13,8,0,71.1,13.86,0.00,0.00
15min,AgWx,beryljct,423,08JUN2018:21:15:00,74.2,13.14,71.9,71.4,72.2,73.8,71.1,15,16,13,0.374,21.3,23.6,19.7,5.722,6.0,212,5.3,7.6,0.00075,0.00108,77.1,72.3,13,1,0,68.5,13.86,0.00,0.00
15min,AgWx,beryljct,423,08JUN2018:21:30:00,72.2,13.13,70.2,70.1,70.3,71.5,69.4,15,17,14,0.354,20.7,22.8,18.8,4.428,4.9,213,2.1,6.3,0.00056,0.00084,76.8,72.4,13,0,0,66.0,13.86,0.00,0.00
15min,AgWx,beryljct,423,08JUN2018:21:45:00,70.1,13.1,69.0,68.4,69.1,70.2,68.1,16,19,13,0.412,21.2,24.2,17.9,5.568,4.9,220,3.2,5.6,0.00053,0.00080,76.5,72.4,13,0,0,65.3,13.86,0.00,0.00
15min,AgWx,beryljct,423,08JUN2018:22:00:00,68.5,13.11,68.3,67.9,68.3,68.9,67.8,17,18,15,0.404,21.7,23.4,19.8,5.327,5.7,216,2.8,6.5,0.00064,0.00091,76.2,72.5,13,0,0,64.6,13.86,0.00,0.00
15min,AgWx,beryljct,423,08JUN2018:22:15:00,67.3,13.1,65.4,58.5,66.4,68.9,58.5,20,34,16,0.575,23.6,30.7,20.1,7.015,5.0,196,32,7.0,0.00051,0.00075,75.8,72.5,13,0,0,63.5,13.86,0.00,0.00
15min,AgWx,beryljct,423,08JUN2018:22:30:00,64.7,13.08,59.3,60.4,59.0,61.0,56.5,25,34,19,0.390,22.9,30.0,18.2,4.275,5.7,169,13,7.5,0.00046,0.00065,75.5,72.5,13,0,0,56.7,13.87,0.00,0.00
15min,AgWx,beryljct,423,08JUN2018:22:45:00,63.0,13.08,63.6,64.4,62.9,65.1,60.4,17,22,14,0.305,17.0,21.1,14.7,4.779,4.8,182,4.8,5.4,0.00046,0.00068,75.1,72.5,13,0,0,58.9,13.87,0.00,0.00
15min,AgWx,beryljct,423,08JUN2018:23:00:00,62.2,13.07,64.7,63.7,64.7,65.4,63.7,14,16,13,0.310,15.2,16.9,13.4,5.7,5.1,173,4.7,6.1,0.00053,0.00077,74.7,72.5,13,0,0,60.7,13.87,0.00,0.00
15min,AgWx,beryljct,423,08JUN2018:23:15:00,61.4,13.05,61.4,58.5,61.8,63.7,58.5,16,23,14,0.350,15.4,22.2,13.3,6.905,5.2,176,6.8,7.8,0.00050,0.00072,74.3,72.5,13,0,0,58.5,13.87,0.00,0.00
15min,AgWx,beryljct,423,08JUN2018:23:30:00,60.2,13.04,57.7,58.2,57.7,59.4,55.6,20,26,17,0.318,17.3,21.7,14.6,4.669,5.4,181,12,7.0,0.00046,0.00065,74.0,72.5,13,0,0,55.5,13.87,0.00,0.00
15min,AgWx,beryljct,423,08JUN2018:23:45:00,59.4,13.03,60.0,57.6,59.8,61.8,57.6,20,26,16,0.424,18.2,23.2,14.8,5.941,5.9,167,10,7.3,0.00053,0.00074,73.6,72.4,13,0,0,57.2,13.87,0.00,0.00
15min,AgWx,beryljct,423,09JUN2018:00:00:00,58.6,13.03,57.3,59.1,57.0,59.1,54.5,25,32,19,0.331,20.9,25.5,17.3,7.19,6.3,162,7.8,7.9,0.00050,0.00068,73.2,72.4,13,0,0,55.3,13.87,0.00,0.00
15min,AgWx,beryljct,423,09JUN2018:00:15:00,58.3,13.02,59.8,59.8,59.5,60.9,57.4,20,26,17,0.326,17.8,23.4,15.4,6.116,5.7,175,7.7,7.2,0.00051,0.00071,72.8,72.3,13,0,0,57.0,13.87,0.00,0.00
15min,AgWx,beryljct,423,09JUN2018:00:30:00,58.2,13.01,60.2,57.7,60.2,61.2,57.7,19,23,16,0.376,17.5,20.7,14.8,5.656,5.6,185,6.5,6.9,0.00052,0.00073,72.5,72.3,13,0,0,57.5,13.87,0.00,0.00
15min,AgWx,beryljct,423,09JUN2018:00:45:00,58.0,13,59.2,61.0,58.7,61.0,56.9,22,26,19,0.342,20.0,22.6,18.1,5.919,5.5,192,7.0,6.7,0.00046,0.00066,72.1,72.2,13,0,0,56.0,13.87,0.00,0.00
15min,AgWx,bigpiney,439,08JUN2018:01:00:00,53.4,12.81,46.1,46.0,47.0,49.2,45.9,53,55,49,0.585,30.7,31.8,30.2,3.924,5.5,315,9.0,7.5,0.00015,0.00022,61.0,57.5,54,0,0,0.0,.,0.00,0.00
15min,AgWx,bigpiney,439,08JUN2018:01:15:00,52.5,12.8,44.9,45.6,45.7,47.6,43.9,58,65,52,0.643,31.8,33.3,30.6,4.932,4.0,79,60,7.8,0.00004,0.00007,60.9,57.4,54,0,0,0.0,.,0.00,0.00
15min,AgWx,bigpiney,439,08JUN2018:01:30:00,51.5,12.79,42.9,43.1,43.9,45.4,43.1,73,76,63,0.720,35.6,36.3,33.4,1.403,3.8,150,25,5.6,-0.00004,-0.00003,60.7,57.3,54,0,0,0.0,.,0.00,0.00
15min,AgWx,bigpiney,439,08JUN2018:01:45:00,50.5,12.78,41.9,42.0,42.9,43.4,42.0,78,80,75,0.724,36.5,37.1,36.0,2.499,2.3,199,12,3.4,-0.00013,-0.00016,60.5,57.3,54,0,0,0.0,.,0.00,0.00
15min,AgWx,bigpiney,439,08JUN2018:02:00:00,49.5,12.77,41.6,41.8,41.7,42.1,41.3,78,81,74,0.679,35.4,36.3,34.5,3.376,4.0,207,10,5.7,-0.00006,-0.00006,60.3,57.2,54,0,0,0.0,.,0.00,0.00
15min,AgWx,bigpiney,439,08JUN2018:02:15:00,48.7,12.76,42.0,41.7,41.8,42.2,41.4,77,79,75,0.703,35.0,35.8,34.6,1.885,3.4,246,16,5.5,-0.00007,-0.00008,60.1,57.1,54,0,0,0.0,.,0.00,0.00
15min,AgWx,bigpiney,439,08JUN2018:02:30:00,48.0,12.74,41.3,41.0,41.8,42.9,41.0,77,81,69,0.699,35.1,36.1,33.4,2.017,2.5,324,48,4.8,-0.00012,-0.00014,60.0,57.0,54,0,0,0.0,.,0.00,0.00
15min,AgWx,bigpiney,439,08JUN2018:02:45:00,47.4,12.74,40.8,40.4,40.9,41.4,40.3,82,85,78,0.721,35.9,36.5,35.2,2.653,1.1,55,30,2.9,-0.00020,-0.00028,59.8,57.0,54,0,0,0.0,.,0.00,0.00
15min,AgWx,bigpiney,439,08JUN2018:03:00:00,46.8,12.73,40.3,40.2,40.6,41.2,40.2,84,87,81,0.712,36.1,36.8,35.6,3.113,2.2,209,62,4.0,-0.00015,-0.00018,59.6,56.9,54,0,0,0.0,.,0.00,0.00
15min,AgWx,bigpiney,439,08JUN2018:03:15:00,46.2,12.71,40.8,40.6,40.3,40.8,39.9,83,85,81,0.714,35.6,36.0,35.2,1.447,2.6,248,8.5,3.9,-0.00013,-0.00015,59.4,56.8,54,0,0,0.0,.,0.00,0.00
15min,AgWx,bigpiney,439,08JUN2018:03:30:00,45.7,12.7,41.6,41.7,42.1,44.2,40.3,75,83,64,0.705,34.9,35.9,32.8,2.126,2.1,238,19,2.7,-0.00013,-0.00017,59.2,56.7,54,0,0,0.0,.,0.00,0.00
15min,AgWx,bigpiney,439,08JUN2018:03:45:00,45.4,12.69,40.8,41.3,41.4,41.9,41.0,78,81,72,0.688,34.9,36.1,33.5,2.192,1.9,272,14,3.2,-0.00015,-0.00019,59.0,56.7,54,0,0,0.0,.,0.00,0.00
15min,AgWx,bigpiney,439,08JUN2018:04:00:00,45.0,12.68,37.8,37.7,38.9,41.2,37.7,83,84,79,0.645,34.1,35.3,33.3,3.266,2.7,241,8.8,4.6,-0.00012,-0.00014,58.9,56.6,54,0,0,0.0,.,0.00,0.00
15min,AgWx,bigpiney,439,08JUN2018:04:15:00,44.5,12.68,39.2,38.8,38.5,39.3,37.6,83,84,81,0.659,33.7,34.5,33.3,1.666,2.6,239,13,3.6,-0.00012,-0.00015,58.7,56.5,54,0,0,0.0,.,0.00,0.00
15min,AgWx,bigpiney,439,08JUN2018:04:30:00,44.0,12.67,36.9,36.8,37.7,38.9,36.8,83,85,81,0.603,32.9,34.2,31.6,3.332,2.9,210,7.2,4.1,-0.00011,-0.00013,58.5,56.4,54,0,0,0.0,.,0.00,0.00
15min,AgWx,bigpiney,439,08JUN2018:04:45:00,43.4,12.65,37.3,36.6,36.6,36.9,36.4,84,86,81,0.634,32.3,32.9,31.6,5.02,3.8,207,7.9,5.6,-0.00009,-0.00010,58.3,56.3,54,0,0,0.0,.,0.00,0.00
15min,AgWx,bigpiney,439,08JUN2018:05:00:00,43.0,12.64,38.6,38.2,37.5,38.3,36.7,85,87,82,0.643,33.3,33.5,33.0,4.911,5.3,220,9.7,7.1,-0.00005,-0.00005,58.1,56.2,54,0,0,0.0,.,0.00,0.00
15min,AgWx,bigpiney,439,08JUN2018:05:15:00,42.7,12.63,38.4,38.5,38.7,39.3,38.2,81,82,79,0.646,33.4,33.7,33.2,1.469,3.3,247,25,5.6,-0.00009,-0.00010,58.0,56.2,54,0,0,0.0,.,0.00,0.00
15min,AgWx,bigpiney,439,08JUN2018:05:30:00,42.6,12.62,38.0,38.0,38.3,38.6,38.0,83,84,82,0.641,33.5,33.8,33.2,3.091,2.2,247,21,3.1,-0.00014,-0.00018,57.8,56.1,54,0,0,0.0,.,0.00,0.00
15min,AgWx,bigpiney,439,08JUN2018:05:45:00,42.4,12.61,38.9,38.3,37.8,38.3,37.3,82,84,80,0.624,32.8,33.4,32.4,2.894,3.4,240,17,4.2,-0.00008,-0.00010,57.6,56.0,54,3,0,0.0,.,0.00,0.00
15min,AgWx,bigpiney,439,08JUN2018:06:00:00,42.2,12.62,37.0,36.9,38.2,38.8,36.9,80,83,77,0.619,32.5,33.2,32.2,2.828,2.6,225,14,3.5,-0.00029,-0.00024,57.4,55.9,54,15,0,0.0,.,0.00,0.00
15min,AgWx,bigpiney,439,08JUN2018:06:15:00,42.2,12.64,39.3,38.4,37.3,38.4,36.8,82,85,78,0.617,32.4,33.0,32.1,4.538,3.8,214,12,5.2,-0.00013,-0.00006,57.2,55.8,54,41,0,0.0,.,0.00,0.00
15min,AgWx,bigpiney,439,08JUN2018:06:30:00,42.3,12.66,40.0,39.6,39.5,40.1,38.5,78,83,76,0.681,33.3,34.9,32.3,1.315,3.4,253,42,4.7,-0.00000,0.00009,57.0,55.8,54,69,0,0.0,.,0.00,0.00
15min,AgWx,bigpiney,439,08JUN2018:06:45:00,42.8,12.67,40.7,40.2,39.9,40.2,39.6,80,82,77,0.661,34.2,34.8,33.2,2.236,2.7,18,8.9,4.1,0.00013,0.00021,56.9,55.7,54,105,0,0.0,.,0.00,0.00
15min,AgWx,bigpiney,439,08JUN2018:07:00:00,43.8,12.68,42.9,42.8,41.5,42.8,40.1,78,81,75,0.726,35.0,36.3,33.9,1.337,1.7,328,31,2.8,0.00030,0.00038,56.7,55.5,54,144,0,0.0,.,0.00,0.00
15min,AgWx,bigpiney,439,08JUN2018:07:15:00,45.2,12.72,45.8,45.7,44.2,45.8,42.8,74,78,69,0.724,36.4,37.2,35.3,0,1.2,271,13,3.0,0.00054,0.00062,56.5,55.5,54,187,0,0.0,.,0.00,0.00
15min,AgWx,bigpiney,439,08JUN2018:07:30:00,47.1,12.74,48.3,47.8,46.9,48.0,45.6,68,70,65,0.753,36.8,38.4,35.7,1.206,0.4,130,16,1.3,0.00079,0.00086,56.3,55.5,54,233,0,0.0,.,0.00,0.00
15min,AgWx,bigpiney,439,08JUN2018:07:45:00,49.3,12.78,49.8,48.9,48.4,49.0,47.8,68,71,65,0.803,38.2,39.8,36.5,2.499,2.4,127,13,3.4,0.00115,0.00135,56.2,55.3,54,280,0,0.0,.,0.00,0.00
15min,AgWx,bigpiney,439,08JUN2018:08:00:00,51.2,12.81,50.0,50.3,49.4,50.4,48.7,66,70,64,0.805,38.6,39.9,37.4,3.749,2.3,128,16,3.7,0.00144,0.00166,56.0,55.2,54,328,0,0.0,.,0.00,0.00
15min,AgWx,bigpiney,439,08JUN2018:08:15:00,53.0,12.9,53.1,52.5,51.1,52.5,50.2,62,66,58,0.838,38.6,40.4,37.3,2.543,2.8,141,13,4.5,0.00179,0.00207,55.8,55.1,54,377,0,0.0,.,0.00,0.00
15min,AgWx,bigpiney,439,08JUN2018:08:30:00,54.7,13.12,53.5,53.5,52.9,53.5,52.3,61,65,57,0.831,39.8,41.7,37.6,3.88,3.0,124,21,4.4,0.00213,0.00245,55.7,55.0,54,426,0,0.0,.,0.00,0.00